TimeMST,TemperatureF,Dew PointF,Humidity,Sea Level PressureIn,VisibilityMPH,Wind Direction,Wind SpeedMPH,Gust SpeedMPH,PrecipitationIn,Events,Conditions,WindDirDegrees,DateUTC
12:53 AM,46.0,34.0,63,29.86,10.0,South,3.5,-,N/A,,Clear,190,2011-10-07 07:53:00
1:53 AM,46.9,33.1,59,29.86,10.0,Calm,Calm,-,N/A,,Clear,0,2011-10-07 08:53:00
2:53 AM,46.0,34.0,63,29.86,10.0,Calm,Calm,-,N/A,,Clear,0,2011-10-07 09:53:00
3:53 AM,45.0,33.1,63,29.87,10.0,Calm,Calm,-,N/A,,Mostly Cloudy,0,2011-10-07 10:53:00
4:53 AM,44.1,32.0,63,29.89,10.0,NW,4.6,-,N/A,,Clear,310,2011-10-07 11:53:00
5:53 AM,44.6,32.0,61,29.97,10.0,NW,4.6,-,N/A,,Clear,310,2011-10-07 12:53:00
6:53 AM,44.1,32.0,63,29.92,10.0,NW,3.5,-,N/A,,Clear,310,2011-10-07 13:53:00
7:53 AM,46.9,30.9,54,29.93,10.0,Calm,Calm,-,N/A,,Partly Cloudy,0,2011-10-07 14:53:00
8:53 AM,50.0,30.0,46,29.94,10.0,NNW,4.6,-,N/A,,Clear,330,2011-10-07 15:53:00
9:53 AM,50.0,30.2,47,30.02,10.0,NNW,5.8,-,N/A,,Clear,330,2011-10-07 16:53:00
10:53 AM,53.1,28.0,38,29.95,10.0,North,9.2,-,0.00,Rain,Light Rain,350,2011-10-07 17:53:00
11:53 AM,55.0,27.0,34,29.94,10.0,Variable,3.5,-,0.00,,Clear,0,2011-10-07 18:53:00
12:53 PM,57.0,24.1,28,29.92,10.0,NNW,6.9,-,N/A,,Clear,340,2011-10-07 19:53:00
1:53 PM,57.2,24.8,29,29.98,10.0,NNW,9.2,-,N/A,,Clear,330,2011-10-07 20:53:00
2:53 PM,61.0,21.9,22,29.89,10.0,North,10.4,18.4,N/A,,Clear,350,2011-10-07 21:53:00
3:53 PM,59.0,24.1,26,29.91,10.0,Variable,4.6,-,N/A,,Clear,0,2011-10-07 22:53:00
4:53 PM,59.0,25.0,27,29.90,10.0,West,5.8,-,N/A,,Partly Cloudy,280,2011-10-07 23:53:00
5:53 PM,57.0,24.1,28,29.91,10.0,West,6.9,-,N/A,,Clear,270,2011-10-08 00:53:00
6:53 PM,55.9,25.0,30,29.94,10.0,WNW,5.8,-,N/A,,Clear,290,2011-10-08 01:53:00
7:53 PM,55.0,24.1,30,29.95,10.0,WNW,6.9,-,N/A,,Clear,290,2011-10-08 02:53:00
8:53 PM,53.1,24.1,32,29.96,10.0,West,8.1,-,N/A,,Clear,280,2011-10-08 03:53:00
9:53 PM,52.0,26.1,37,29.95,10.0,West,5.8,-,N/A,,Clear,270,2011-10-08 04:53:00
10:53 PM,51.1,27.0,39,29.94,10.0,WSW,4.6,-,N/A,,Clear,240,2011-10-08 05:53:00
11:53 PM,51.1,28.0,41,29.93,10.0,Variable,3.5,-,N/A,,Clear,0,2011-10-08 06:53:00